Simultaneous Nadir Overpasses (SNOs) Predictions

Prediction of SNOs between AQUA and METOP-A Satellite Orbit:

Table of predicted SNOs for the next 14.0 days since TLE Epoch: 2/20/2021
Index Date (AQUA) Time (AQUA) Lat,Lon (AQUA) SZA (AQUA ) Date (METOP-A) Time (METOP-A) Lat,Lon (METOP-A) SZA (METOP-A ) Distance(km) Time Diff (sec)
1 02/21/2021 08:06:47 76.59, 45.14 87.49 02/21/2021 08:05:43 76.53, 41.57 87.72 92.57 64
2 02/21/2021 08:56:24 -77.10,-149.06 91.91 02/21/2021 08:56:12 -77.10,-148.97 91.92 2.22 12
3 02/21/2021 09:45:52 77.15, 18.39 88.14 02/21/2021 09:46:51 77.15, 18.56 88.11 4.25 59
4 02/24/2021 03:41:08 76.91, 110.46 86.83 02/24/2021 03:39:58 76.81, 108.94 86.88 39.97 70
5 02/24/2021 04:30:38 -77.09, -82.56 92.97 02/24/2021 04:30:33 -77.10, -82.60 92.95 2.16 5
6 02/24/2021 05:20:06 77.14, 84.88 87.09 02/24/2021 05:21:12 77.15, 84.92 87.08 1.83 66
7 02/26/2021 23:15:27 77.09, 176.24 85.99 02/26/2021 23:14:14 77.09, 176.34 86.01 2.50 73
8 02/27/2021 00:04:54 -77.12, -16.27 93.98 02/27/2021 00:04:55 -77.11, -16.24 93.99 1.80 1
9 02/27/2021 00:54:22 77.18, 151.17 86.08 02/27/2021 00:55:34 77.16, 151.28 86.03 3.39 72
10 03/01/2021 18:49:42 77.08,-117.31 84.92 03/01/2021 18:48:36 77.09,-117.31 84.94 0.55 66
11 03/01/2021 19:39:09 -77.12, 50.18 95.05 03/01/2021 19:39:17 -77.11, 50.12 95.06 1.87 8
12 03/01/2021 20:28:42 77.40,-143.28 85.28 03/01/2021 20:29:50 77.42,-141.27 85.15 48.81 68
13 03/04/2021 14:23:56 77.09, -50.88 83.83 03/04/2021 14:22:57 77.09, -50.96 83.86 2.04 59
14 03/04/2021 15:13:23 -77.12, 116.61 96.14 03/04/2021 15:13:38 -77.12, 116.47 96.14 3.65 15



Historial Predications of SNOs between AQUA and METOP-A
